Location: Newark
(13.8625°N, 100.5144°E)
Time: 12:15:00
(UTC+00:00)

Envisat - Pass Details

Date: 10 April 2020
Orbit: 764 x 766 km, 98.1° (Epoch: 02 June)

Event Time Altitude Azimuth Distance (km) Brightness Sun altitude
Rises 22:40:32 0° 34° (NE) 3,222 7.0 -7.2°
Reaches altitude 10° 22:43:20 10° 50° (NE) 2,296 6.6 -6.5°
Maximum altitude 22:47:11 22° 99° (E) 1,629 5.8 -5.6°
Drops below altitude 10° 22:51:00 10° 149° (SSE) 2,293 5.8 -4.7°
Sets 22:53:47 0° 164° (SSE) 3,218 6.3 -4.0°
